Date_Time,Julian_Date,Latitude,Longitude,Instrument_Depth,Water_Temperature
(yyyy-mm-dd hh:mn:ss UTC),(JD),(+ deg. North),(+ deg. East),(m),(deg. C)
1987-04-05 13:00:00 UTC,2446891.041667,27.8833,-91.9950,0100,20.6500
1987-04-05 13:30:00 UTC,2446891.062500,27.8833,-91.9950,0100,20.5900
1987-04-05 14:00:00 UTC,2446891.083333,27.8833,-91.9950,0100,20.5300
1987-04-05 14:30:00 UTC,2446891.104167,27.8833,-91.9950,0100,20.5000
1987-04-05 15:00:00 UTC,2446891.125000,27.8833,-91.9950,0100,20.5100
1987-04-05 15:30:00 UTC,2446891.145833,27.8833,-91.9950,0100,20.4800
1987-04-05 16:00:00 UTC,2446891.166667,27.8833,-91.9950,0100,20.4500
1987-04-05 16:30:00 UTC,2446891.187500,27.8833,-91.9950,0100,20.3700
1987-04-05 17:00:00 UTC,2446891.208333,27.8833,-91.9950,0100,20.3700
1987-04-05 17:30:00 UTC,2446891.229167,27.8833,-91.9950,0100,20.3900
1987-04-05 18:00:00 UTC,2446891.250000,27.8833,-91.9950,0100,20.4000
1987-04-05 18:30:00 UTC,2446891.270833,27.8833,-91.9950,0100,20.4300
1987-04-05 19:00:00 UTC,2446891.291667,27.8833,-91.9950,0100,20.4300
1987-04-05 19:30:00 UTC,2446891.312500,27.8833,-91.9950,0100,20.4000
1987-04-05 20:00:00 UTC,2446891.333333,27.8833,-91.9950,0100,20.4000
1987-04-05 20:30:00 UTC,2446891.354167,27.8833,-91.9950,0100,20.4200
1987-04-05 21:00:00 UTC,2446891.375000,27.8833,-91.9950,0100,20.4200
1987-04-05 21:30:00 UTC,2446891.395833,27.8833,-91.9950,0100,20.3400
1987-04-05 22:00:00 UTC,2446891.416667,27.8833,-91.9950,0100,20.3900
1987-04-05 22:30:00 UTC,2446891.437500,27.8833,-91.9950,0100,20.3900
1987-04-05 23:00:00 UTC,2446891.458333,27.8833,-91.9950,0100,20.4000
1987-04-05 23:30:00 UTC,2446891.479167,27.8833,-91.9950,0100,20.3900
1987-04-06 00:00:00 UTC,2446891.500000,27.8833,-91.9950,0100,20.3100
1987-04-06 00:30:00 UTC,2446891.520833,27.8833,-91.9950,0100,20.3400
1987-04-06 01:00:00 UTC,2446891.541667,27.8833,-91.9950,0100,20.3400
1987-04-06 01:30:00 UTC,2446891.562500,27.8833,-91.9950,0100,20.3200
1987-04-06 02:00:00 UTC,2446891.583333,27.8833,-91.9950,0100,20.3400
1987-04-06 02:30:00 UTC,2446891.604167,27.8833,-91.9950,0100,20.3500
1987-04-06 03:00:00 UTC,2446891.625000,27.8833,-91.9950,0100,20.3500
1987-04-06 03:30:00 UTC,2446891.645833,27.8833,-91.9950,0100,20.3100
1987-04-06 04:00:00 UTC,2446891.666667,27.8833,-91.9950,0100,20.3100
1987-04-06 04:30:00 UTC,2446891.687500,27.8833,-91.9950,0100,20.3100
1987-04-06 05:00:00 UTC,2446891.708333,27.8833,-91.9950,0100,20.3200
1987-04-06 05:30:00 UTC,2446891.729167,27.8833,-91.9950,0100,20.3200
1987-04-06 06:00:00 UTC,2446891.750000,27.8833,-91.9950,0100,20.3500
1987-04-06 06:30:00 UTC,2446891.770833,27.8833,-91.9950,0100,20.3400
1987-04-06 07:00:00 UTC,2446891.791667,27.8833,-91.9950,0100,20.3400
1987-04-06 07:30:00 UTC,2446891.812500,27.8833,-91.9950,0100,20.3500
1987-04-06 08:00:00 UTC,2446891.833333,27.8833,-91.9950,0100,20.3500
1987-04-06 08:30:00 UTC,2446891.854167,27.8833,-91.9950,0100,20.3500
1987-04-06 09:00:00 UTC,2446891.875000,27.8833,-91.9950,0100,20.3400
1987-04-06 09:30:00 UTC,2446891.895833,27.8833,-91.9950,0100,20.3500
1987-04-06 10:00:00 UTC,2446891.916667,27.8833,-91.9950,0100,20.3500
1987-04-06 10:30:00 UTC,2446891.937500,27.8833,-91.9950,0100,20.3500
1987-04-06 11:00:00 UTC,2446891.958333,27.8833,-91.9950,0100,20.3700
1987-04-06 11:30:00 UTC,2446891.979167,27.8833,-91.9950,0100,20.3700
1987-04-06 12:00:00 UTC,2446892.000000,27.8833,-91.9950,0100,20.3900
1987-04-06 12:30:00 UTC,2446892.020833,27.8833,-91.9950,0100,20.3900
1987-04-06 13:00:00 UTC,2446892.041667,27.8833,-91.9950,0100,20.3900
1987-04-06 13:30:00 UTC,2446892.062500,27.8833,-91.9950,0100,20.3900
1987-04-06 14:00:00 UTC,2446892.083333,27.8833,-91.9950,0100,20.4000
1987-04-06 14:30:00 UTC,2446892.104167,27.8833,-91.9950,0100,20.4000
1987-04-06 15:00:00 UTC,2446892.125000,27.8833,-91.9950,0100,20.4000
1987-04-06 15:30:00 UTC,2446892.145833,27.8833,-91.9950,0100,20.4000
1987-04-06 16:00:00 UTC,2446892.166667,27.8833,-91.9950,0100,20.4000
1987-04-06 16:30:00 UTC,2446892.187500,27.8833,-91.9950,0100,20.4000
1987-04-06 17:00:00 UTC,2446892.208333,27.8833,-91.9950,0100,20.4000
1987-04-06 17:30:00 UTC,2446892.229167,27.8833,-91.9950,0100,20.4000
1987-04-06 18:00:00 UTC,2446892.250000,27.8833,-91.9950,0100,20.3900
1987-04-06 18:30:00 UTC,2446892.270833,27.8833,-91.9950,0100,20.3900
1987-04-06 19:00:00 UTC,2446892.291667,27.8833,-91.9950,0100,20.4000
1987-04-06 19:30:00 UTC,2446892.312500,27.8833,-91.9950,0100,20.4200
1987-04-06 20:00:00 UTC,2446892.333333,27.8833,-91.9950,0100,20.4200
1987-04-06 20:30:00 UTC,2446892.354167,27.8833,-91.9950,0100,20.4200
1987-04-06 21:00:00 UTC,2446892.375000,27.8833,-91.9950,0100,20.3900
1987-04-06 21:30:00 UTC,2446892.395833,27.8833,-91.9950,0100,20.3700
1987-04-06 22:00:00 UTC,2446892.416667,27.8833,-91.9950,0100,20.3700
1987-04-06 22:30:00 UTC,2446892.437500,27.8833,-91.9950,0100,20.3900
1987-04-06 23:00:00 UTC,2446892.458333,27.8833,-91.9950,0100,20.3900
1987-04-06 23:30:00 UTC,2446892.479167,27.8833,-91.9950,0100,20.4000
1987-04-07 00:00:00 UTC,2446892.500000,27.8833,-91.9950,0100,20.4800
1987-04-07 00:30:00 UTC,2446892.520833,27.8833,-91.9950,0100,20.5100
1987-04-07 01:00:00 UTC,2446892.541667,27.8833,-91.9950,0100,20.5400
1987-04-07 01:30:00 UTC,2446892.562500,27.8833,-91.9950,0100,20.5600
1987-04-07 02:00:00 UTC,2446892.583333,27.8833,-91.9950,0100,20.5900
1987-04-07 02:30:00 UTC,2446892.604167,27.8833,-91.9950,0100,20.6200
1987-04-07 03:00:00 UTC,2446892.625000,27.8833,-91.9950,0100,20.6700
1987-04-07 03:30:00 UTC,2446892.645833,27.8833,-91.9950,0100,20.7000
1987-04-07 04:00:00 UTC,2446892.666667,27.8833,-91.9950,0100,20.7300
1987-04-07 04:30:00 UTC,2446892.687500,27.8833,-91.9950,0100,20.7500
1987-04-07 05:00:00 UTC,2446892.708333,27.8833,-91.9950,0100,20.7600
1987-04-07 05:30:00 UTC,2446892.729167,27.8833,-91.9950,0100,20.7800
1987-04-07 06:00:00 UTC,2446892.750000,27.8833,-91.9950,0100,20.7900
1987-04-07 06:30:00 UTC,2446892.770833,27.8833,-91.9950,0100,20.8100
1987-04-07 07:00:00 UTC,2446892.791667,27.8833,-91.9950,0100,20.7800
1987-04-07 07:30:00 UTC,2446892.812500,27.8833,-91.9950,0100,20.7500
1987-04-07 08:00:00 UTC,2446892.833333,27.8833,-91.9950,0100,20.7600
1987-04-07 08:30:00 UTC,2446892.854167,27.8833,-91.9950,0100,20.7500
1987-04-07 09:00:00 UTC,2446892.875000,27.8833,-91.9950,0100,20.8100
1987-04-07 09:30:00 UTC,2446892.895833,27.8833,-91.9950,0100,20.7900
1987-04-07 10:00:00 UTC,2446892.916667,27.8833,-91.9950,0100,20.8100
1987-04-07 10:30:00 UTC,2446892.937500,27.8833,-91.9950,0100,20.8200
1987-04-07 11:00:00 UTC,2446892.958333,27.8833,-91.9950,0100,20.8100
1987-04-07 11:30:00 UTC,2446892.979167,27.8833,-91.9950,0100,20.8100
1987-04-07 12:00:00 UTC,2446893.000000,27.8833,-91.9950,0100,20.7900
1987-04-07 12:30:00 UTC,2446893.020833,27.8833,-91.9950,0100,20.7300
1987-04-07 13:00:00 UTC,2446893.041667,27.8833,-91.9950,0100,20.7100
1987-04-07 13:30:00 UTC,2446893.062500,27.8833,-91.9950,0100,20.6800
1987-04-07 14:00:00 UTC,2446893.083333,27.8833,-91.9950,0100,20.5300
1987-04-07 14:30:00 UTC,2446893.104167,27.8833,-91.9950,0100,20.5300
1987-04-07 15:00:00 UTC,2446893.125000,27.8833,-91.9950,0100,20.7800
1987-04-07 15:30:00 UTC,2446893.145833,27.8833,-91.9950,0100,20.8100
1987-04-07 16:00:00 UTC,2446893.166667,27.8833,-91.9950,0100,20.8100
1987-04-07 16:30:00 UTC,2446893.187500,27.8833,-91.9950,0100,20.8100
1987-04-07 17:00:00 UTC,2446893.208333,27.8833,-91.9950,0100,20.8100
1987-04-07 17:30:00 UTC,2446893.229167,27.8833,-91.9950,0100,20.8100
1987-04-07 18:00:00 UTC,2446893.250000,27.8833,-91.9950,0100,20.7900
1987-04-07 18:30:00 UTC,2446893.270833,27.8833,-91.9950,0100,20.7900
1987-04-07 19:00:00 UTC,2446893.291667,27.8833,-91.9950,0100,20.7800
1987-04-07 19:30:00 UTC,2446893.312500,27.8833,-91.9950,0100,20.7600
1987-04-07 20:00:00 UTC,2446893.333333,27.8833,-91.9950,0100,20.7500
1987-04-07 20:30:00 UTC,2446893.354167,27.8833,-91.9950,0100,20.7500
1987-04-07 21:00:00 UTC,2446893.375000,27.8833,-91.9950,0100,20.7100
1987-04-07 21:30:00 UTC,2446893.395833,27.8833,-91.9950,0100,20.7100
1987-04-07 22:00:00 UTC,2446893.416667,27.8833,-91.9950,0100,20.7100
1987-04-07 22:30:00 UTC,2446893.437500,27.8833,-91.9950,0100,20.7100
1987-04-07 23:00:00 UTC,2446893.458333,27.8833,-91.9950,0100,20.7000
1987-04-07 23:30:00 UTC,2446893.479167,27.8833,-91.9950,0100,20.5700
1987-04-08 00:00:00 UTC,2446893.500000,27.8833,-91.9950,0100,20.4800
1987-04-08 00:30:00 UTC,2446893.520833,27.8833,-91.9950,0100,20.3700
1987-04-08 01:00:00 UTC,2446893.541667,27.8833,-91.9950,0100,20.3400
1987-04-08 01:30:00 UTC,2446893.562500,27.8833,-91.9950,0100,20.2900
1987-04-08 02:00:00 UTC,2446893.583333,27.8833,-91.9950,0100,20.3200
1987-04-08 02:30:00 UTC,2446893.604167,27.8833,-91.9950,0100,20.3200
1987-04-08 03:00:00 UTC,2446893.625000,27.8833,-91.9950,0100,20.3500
1987-04-08 03:30:00 UTC,2446893.645833,27.8833,-91.9950,0100,20.3700
1987-04-08 04:00:00 UTC,2446893.666667,27.8833,-91.9950,0100,20.3500
1987-04-08 04:30:00 UTC,2446893.687500,27.8833,-91.9950,0100,20.3100
1987-04-08 05:00:00 UTC,2446893.708333,27.8833,-91.9950,0100,20.2800
1987-04-08 05:30:00 UTC,2446893.729167,27.8833,-91.9950,0100,20.2800
1987-04-08 06:00:00 UTC,2446893.750000,27.8833,-91.9950,0100,20.2800
1987-04-08 06:30:00 UTC,2446893.770833,27.8833,-91.9950,0100,20.2900
1987-04-08 07:00:00 UTC,2446893.791667,27.8833,-91.9950,0100,20.2900
1987-04-08 07:30:00 UTC,2446893.812500,27.8833,-91.9950,0100,20.2600
1987-04-08 08:00:00 UTC,2446893.833333,27.8833,-91.9950,0100,20.2600
1987-04-08 08:30:00 UTC,2446893.854167,27.8833,-91.9950,0100,20.2900
1987-04-08 09:00:00 UTC,2446893.875000,27.8833,-91.9950,0100,20.2600
1987-04-08 09:30:00 UTC,2446893.895833,27.8833,-91.9950,0100,20.3200
1987-04-08 10:00:00 UTC,2446893.916667,27.8833,-91.9950,0100,20.2900
1987-04-08 10:30:00 UTC,2446893.937500,27.8833,-91.9950,0100,20.2600
1987-04-08 11:00:00 UTC,2446893.958333,27.8833,-91.9950,0100,20.2500
1987-04-08 11:30:00 UTC,2446893.979167,27.8833,-91.9950,0100,20.2600
1987-04-08 12:00:00 UTC,2446894.000000,27.8833,-91.9950,0100,20.2800
1987-04-08 12:30:00 UTC,2446894.020833,27.8833,-91.9950,0100,20.3100
1987-04-08 13:00:00 UTC,2446894.041667,27.8833,-91.9950,0100,20.3100
1987-04-08 13:30:00 UTC,2446894.062500,27.8833,-91.9950,0100,20.3400
1987-04-08 14:00:00 UTC,2446894.083333,27.8833,-91.9950,0100,20.3400
1987-04-08 14:30:00 UTC,2446894.104167,27.8833,-91.9950,0100,20.3200
1987-04-08 15:00:00 UTC,2446894.125000,27.8833,-91.9950,0100,20.3200
1987-04-08 15:30:00 UTC,2446894.145833,27.8833,-91.9950,0100,20.4200
1987-04-08 16:00:00 UTC,2446894.166667,27.8833,-91.9950,0100,20.4800
1987-04-08 16:30:00 UTC,2446894.187500,27.8833,-91.9950,0100,20.5300
1987-04-08 17:00:00 UTC,2446894.208333,27.8833,-91.9950,0100,20.6200
1987-04-08 17:30:00 UTC,2446894.229167,27.8833,-91.9950,0100,20.6700
1987-04-08 18:00:00 UTC,2446894.250000,27.8833,-91.9950,0100,20.6800
1987-04-08 18:30:00 UTC,2446894.270833,27.8833,-91.9950,0100,20.6700
1987-04-08 19:00:00 UTC,2446894.291667,27.8833,-91.9950,0100,20.6700
1987-04-08 19:30:00 UTC,2446894.312500,27.8833,-91.9950,0100,20.6700
1987-04-08 20:00:00 UTC,2446894.333333,27.8833,-91.9950,0100,20.6700
1987-04-08 20:30:00 UTC,2446894.354167,27.8833,-91.9950,0100,20.6400
1987-04-08 21:00:00 UTC,2446894.375000,27.8833,-91.9950,0100,20.6200
1987-04-08 21:30:00 UTC,2446894.395833,27.8833,-91.9950,0100,20.6400
1987-04-08 22:00:00 UTC,2446894.416667,27.8833,-91.9950,0100,20.6200
1987-04-08 22:30:00 UTC,2446894.437500,27.8833,-91.9950,0100,20.6200
1987-04-08 23:00:00 UTC,2446894.458333,27.8833,-91.9950,0100,20.6000
1987-04-08 23:30:00 UTC,2446894.479167,27.8833,-91.9950,0100,20.5900
1987-04-09 00:00:00 UTC,2446894.500000,27.8833,-91.9950,0100,20.5900
1987-04-09 00:30:00 UTC,2446894.520833,27.8833,-91.9950,0100,20.6000
1987-04-09 01:00:00 UTC,2446894.541667,27.8833,-91.9950,0100,20.6500
1987-04-09 01:30:00 UTC,2446894.562500,27.8833,-91.9950,0100,20.6700
1987-04-09 02:00:00 UTC,2446894.583333,27.8833,-91.9950,0100,20.6800
1987-04-09 02:30:00 UTC,2446894.604167,27.8833,-91.9950,0100,20.6800
1987-04-09 03:00:00 UTC,2446894.625000,27.8833,-91.9950,0100,20.6800
1987-04-09 03:30:00 UTC,2446894.645833,27.8833,-91.9950,0100,20.6800
1987-04-09 04:00:00 UTC,2446894.666667,27.8833,-91.9950,0100,20.6800
1987-04-09 04:30:00 UTC,2446894.687500,27.8833,-91.9950,0100,20.6800
1987-04-09 05:00:00 UTC,2446894.708333,27.8833,-91.9950,0100,20.6800
1987-04-09 05:30:00 UTC,2446894.729167,27.8833,-91.9950,0100,20.6800
1987-04-09 06:00:00 UTC,2446894.750000,27.8833,-91.9950,0100,20.6800
1987-04-09 06:30:00 UTC,2446894.770833,27.8833,-91.9950,0100,20.6800
1987-04-09 07:00:00 UTC,2446894.791667,27.8833,-91.9950,0100,20.6800
1987-04-09 07:30:00 UTC,2446894.812500,27.8833,-91.9950,0100,20.6800
1987-04-09 08:00:00 UTC,2446894.833333,27.8833,-91.9950,0100,20.6800
1987-04-09 08:30:00 UTC,2446894.854167,27.8833,-91.9950,0100,20.6800
1987-04-09 09:00:00 UTC,2446894.875000,27.8833,-91.9950,0100,20.6800
1987-04-09 09:30:00 UTC,2446894.895833,27.8833,-91.9950,0100,20.6800
1987-04-09 10:00:00 UTC,2446894.916667,27.8833,-91.9950,0100,20.6800
1987-04-09 10:30:00 UTC,2446894.937500,27.8833,-91.9950,0100,20.6800
1987-04-09 11:00:00 UTC,2446894.958333,27.8833,-91.9950,0100,20.6800
1987-04-09 11:30:00 UTC,2446894.979167,27.8833,-91.9950,0100,20.6800
1987-04-09 12:00:00 UTC,2446895.000000,27.8833,-91.9950,0100,20.6800
1987-04-09 12:30:00 UTC,2446895.020833,27.8833,-91.9950,0100,20.7000
1987-04-09 13:00:00 UTC,2446895.041667,27.8833,-91.9950,0100,20.7300
1987-04-09 13:30:00 UTC,2446895.062500,27.8833,-91.9950,0100,20.7100
1987-04-09 14:00:00 UTC,2446895.083333,27.8833,-91.9950,0100,20.7100
1987-04-09 14:30:00 UTC,2446895.104167,27.8833,-91.9950,0100,20.7000
1987-04-09 15:00:00 UTC,2446895.125000,27.8833,-91.9950,0100,20.7000
1987-04-09 15:30:00 UTC,2446895.145833,27.8833,-91.9950,0100,20.7000
1987-04-09 16:00:00 UTC,2446895.166667,27.8833,-91.9950,0100,20.7100
1987-04-09 16:30:00 UTC,2446895.187500,27.8833,-91.9950,0100,20.7100
1987-04-09 17:00:00 UTC,2446895.208333,27.8833,-91.9950,0100,20.7100
1987-04-09 17:30:00 UTC,2446895.229167,27.8833,-91.9950,0100,20.7000
1987-04-09 18:00:00 UTC,2446895.250000,27.8833,-91.9950,0100,20.7000
1987-04-09 18:30:00 UTC,2446895.270833,27.8833,-91.9950,0100,20.7100
1987-04-09 19:00:00 UTC,2446895.291667,27.8833,-91.9950,0100,20.7100
1987-04-09 19:30:00 UTC,2446895.312500,27.8833,-91.9950,0100,20.7300
1987-04-09 20:00:00 UTC,2446895.333333,27.8833,-91.9950,0100,20.7600
1987-04-09 20:30:00 UTC,2446895.354167,27.8833,-91.9950,0100,20.7800
1987-04-09 21:00:00 UTC,2446895.375000,27.8833,-91.9950,0100,20.7800
1987-04-09 21:30:00 UTC,2446895.395833,27.8833,-91.9950,0100,20.7500
1987-04-09 22:00:00 UTC,2446895.416667,27.8833,-91.9950,0100,20.7800
1987-04-09 22:30:00 UTC,2446895.437500,27.8833,-91.9950,0100,20.7800
1987-04-09 23:00:00 UTC,2446895.458333,27.8833,-91.9950,0100,20.7800
1987-04-09 23:30:00 UTC,2446895.479167,27.8833,-91.9950,0100,20.5000
1987-04-10 00:00:00 UTC,2446895.500000,27.8833,-91.9950,0100,20.7300
1987-04-10 00:30:00 UTC,2446895.520833,27.8833,-91.9950,0100,20.5300
1987-04-10 01:00:00 UTC,2446895.541667,27.8833,-91.9950,0100,20.4800
1987-04-10 01:30:00 UTC,2446895.562500,27.8833,-91.9950,0100,20.5000
1987-04-10 02:00:00 UTC,2446895.583333,27.8833,-91.9950,0100,20.5400
1987-04-10 02:30:00 UTC,2446895.604167,27.8833,-91.9950,0100,20.5400
1987-04-10 03:00:00 UTC,2446895.625000,27.8833,-91.9950,0100,20.4300
1987-04-10 03:30:00 UTC,2446895.645833,27.8833,-91.9950,0100,20.3900
1987-04-10 04:00:00 UTC,2446895.666667,27.8833,-91.9950,0100,20.2600
1987-04-10 04:30:00 UTC,2446895.687500,27.8833,-91.9950,0100,20.1800
1987-04-10 05:00:00 UTC,2446895.708333,27.8833,-91.9950,0100,20.1500
1987-04-10 05:30:00 UTC,2446895.729167,27.8833,-91.9950,0100,20.1700
1987-04-10 06:00:00 UTC,2446895.750000,27.8833,-91.9950,0100,20.0700
1987-04-10 06:30:00 UTC,2446895.770833,27.8833,-91.9950,0100,19.9800
1987-04-10 07:00:00 UTC,2446895.791667,27.8833,-91.9950,0100,19.7600
1987-04-10 07:30:00 UTC,2446895.812500,27.8833,-91.9950,0100,19.6500
1987-04-10 08:00:00 UTC,2446895.833333,27.8833,-91.9950,0100,19.6000
1987-04-10 08:30:00 UTC,2446895.854167,27.8833,-91.9950,0100,19.6200
1987-04-10 09:00:00 UTC,2446895.875000,27.8833,-91.9950,0100,19.6800
1987-04-10 09:30:00 UTC,2446895.895833,27.8833,-91.9950,0100,19.6800
1987-04-10 10:00:00 UTC,2446895.916667,27.8833,-91.9950,0100,19.7000
1987-04-10 10:30:00 UTC,2446895.937500,27.8833,-91.9950,0100,19.6700
1987-04-10 11:00:00 UTC,2446895.958333,27.8833,-91.9950,0100,19.7800
1987-04-10 11:30:00 UTC,2446895.979167,27.8833,-91.9950,0100,19.8200
1987-04-10 12:00:00 UTC,2446896.000000,27.8833,-91.9950,0100,19.8400
1987-04-10 12:30:00 UTC,2446896.020833,27.8833,-91.9950,0100,19.9200
1987-04-10 13:00:00 UTC,2446896.041667,27.8833,-91.9950,0100,19.7800
1987-04-10 13:30:00 UTC,2446896.062500,27.8833,-91.9950,0100,19.8900
1987-04-10 14:00:00 UTC,2446896.083333,27.8833,-91.9950,0100,20.0000
1987-04-10 14:30:00 UTC,2446896.104167,27.8833,-91.9950,0100,19.9500
1987-04-10 15:00:00 UTC,2446896.125000,27.8833,-91.9950,0100,19.9600
1987-04-10 15:30:00 UTC,2446896.145833,27.8833,-91.9950,0100,20.0600
1987-04-10 16:00:00 UTC,2446896.166667,27.8833,-91.9950,0100,20.1500
1987-04-10 16:30:00 UTC,2446896.187500,27.8833,-91.9950,0100,20.1200
1987-04-10 17:00:00 UTC,2446896.208333,27.8833,-91.9950,0100,20.0400
1987-04-10 17:30:00 UTC,2446896.229167,27.8833,-91.9950,0100,20.1200
1987-04-10 18:00:00 UTC,2446896.250000,27.8833,-91.9950,0100,20.1800
1987-04-10 18:30:00 UTC,2446896.270833,27.8833,-91.9950,0100,20.1800
1987-04-10 19:00:00 UTC,2446896.291667,27.8833,-91.9950,0100,20.2300
1987-04-10 19:30:00 UTC,2446896.312500,27.8833,-91.9950,0100,20.2300
1987-04-10 20:00:00 UTC,2446896.333333,27.8833,-91.9950,0100,20.2100
1987-04-10 20:30:00 UTC,2446896.354167,27.8833,-91.9950,0100,20.2100
1987-04-10 21:00:00 UTC,2446896.375000,27.8833,-91.9950,0100,20.2000
1987-04-10 21:30:00 UTC,2446896.395833,27.8833,-91.9950,0100,20.2000
1987-04-10 22:00:00 UTC,2446896.416667,27.8833,-91.9950,0100,20.1800
1987-04-10 22:30:00 UTC,2446896.437500,27.8833,-91.9950,0100,20.1800
1987-04-10 23:00:00 UTC,2446896.458333,27.8833,-91.9950,0100,20.2300
1987-04-10 23:30:00 UTC,2446896.479167,27.8833,-91.9950,0100,20.2300
1987-04-11 00:00:00 UTC,2446896.500000,27.8833,-91.9950,0100,20.2500
1987-04-11 00:30:00 UTC,2446896.520833,27.8833,-91.9950,0100,20.1700
1987-04-11 01:00:00 UTC,2446896.541667,27.8833,-91.9950,0100,20.2000
1987-04-11 01:30:00 UTC,2446896.562500,27.8833,-91.9950,0100,20.2300
1987-04-11 02:00:00 UTC,2446896.583333,27.8833,-91.9950,0100,20.2600
1987-04-11 02:30:00 UTC,2446896.604167,27.8833,-91.9950,0100,20.2300
1987-04-11 03:00:00 UTC,2446896.625000,27.8833,-91.9950,0100,20.2100
1987-04-11 03:30:00 UTC,2446896.645833,27.8833,-91.9950,0100,20.2100
1987-04-11 04:00:00 UTC,2446896.666667,27.8833,-91.9950,0100,20.2100
1987-04-11 04:30:00 UTC,2446896.687500,27.8833,-91.9950,0100,20.1500
1987-04-11 05:00:00 UTC,2446896.708333,27.8833,-91.9950,0100,20.1500
1987-04-11 05:30:00 UTC,2446896.729167,27.8833,-91.9950,0100,20.1800
1987-04-11 06:00:00 UTC,2446896.750000,27.8833,-91.9950,0100,20.1700
1987-04-11 06:30:00 UTC,2446896.770833,27.8833,-91.9950,0100,20.1700
1987-04-11 07:00:00 UTC,2446896.791667,27.8833,-91.9950,0100,20.1700
1987-04-11 07:30:00 UTC,2446896.812500,27.8833,-91.9950,0100,20.2100
1987-04-11 08:00:00 UTC,2446896.833333,27.8833,-91.9950,0100,20.1800
1987-04-11 08:30:00 UTC,2446896.854167,27.8833,-91.9950,0100,20.2000
1987-04-11 09:00:00 UTC,2446896.875000,27.8833,-91.9950,0100,20.1700
1987-04-11 09:30:00 UTC,2446896.895833,27.8833,-91.9950,0100,20.1800
1987-04-11 10:00:00 UTC,2446896.916667,27.8833,-91.9950,0100,20.1800
1987-04-11 10:30:00 UTC,2446896.937500,27.8833,-91.9950,0100,20.2000
1987-04-11 11:00:00 UTC,2446896.958333,27.8833,-91.9950,0100,20.2000
1987-04-11 11:30:00 UTC,2446896.979167,27.8833,-91.9950,0100,20.3100
1987-04-11 12:00:00 UTC,2446897.000000,27.8833,-91.9950,0100,20.4500
1987-04-11 12:30:00 UTC,2446897.020833,27.8833,-91.9950,0100,20.4800
1987-04-11 13:00:00 UTC,2446897.041667,27.8833,-91.9950,0100,20.5400
1987-04-11 13:30:00 UTC,2446897.062500,27.8833,-91.9950,0100,20.6000
1987-04-11 14:00:00 UTC,2446897.083333,27.8833,-91.9950,0100,20.6700
1987-04-11 14:30:00 UTC,2446897.104167,27.8833,-91.9950,0100,20.7300
1987-04-11 15:00:00 UTC,2446897.125000,27.8833,-91.9950,0100,20.7300
1987-04-11 15:30:00 UTC,2446897.145833,27.8833,-91.9950,0100,20.7500
1987-04-11 16:00:00 UTC,2446897.166667,27.8833,-91.9950,0100,20.7300
1987-04-11 16:30:00 UTC,2446897.187500,27.8833,-91.9950,0100,20.7300
1987-04-11 17:00:00 UTC,2446897.208333,27.8833,-91.9950,0100,20.7300
1987-04-11 17:30:00 UTC,2446897.229167,27.8833,-91.9950,0100,20.7500
1987-04-11 18:00:00 UTC,2446897.250000,27.8833,-91.9950,0100,20.7500
1987-04-11 18:30:00 UTC,2446897.270833,27.8833,-91.9950,0100,20.7300
1987-04-11 19:00:00 UTC,2446897.291667,27.8833,-91.9950,0100,20.7300
1987-04-11 19:30:00 UTC,2446897.312500,27.8833,-91.9950,0100,20.7100
1987-04-11 20:00:00 UTC,2446897.333333,27.8833,-91.9950,0100,20.7100
1987-04-11 20:30:00 UTC,2446897.354167,27.8833,-91.9950,0100,20.7100
1987-04-11 21:00:00 UTC,2446897.375000,27.8833,-91.9950,0100,20.7100
1987-04-11 21:30:00 UTC,2446897.395833,27.8833,-91.9950,0100,20.7100
1987-04-11 22:00:00 UTC,2446897.416667,27.8833,-91.9950,0100,20.7100
1987-04-11 22:30:00 UTC,2446897.437500,27.8833,-91.9950,0100,20.7300
1987-04-11 23:00:00 UTC,2446897.458333,27.8833,-91.9950,0100,20.7100
1987-04-11 23:30:00 UTC,2446897.479167,27.8833,-91.9950,0100,20.7100
1987-04-12 00:00:00 UTC,2446897.500000,27.8833,-91.9950,0100,20.7100
1987-04-12 00:30:00 UTC,2446897.520833,27.8833,-91.9950,0100,20.7100
1987-04-12 01:00:00 UTC,2446897.541667,27.8833,-91.9950,0100,20.7100
1987-04-12 01:30:00 UTC,2446897.562500,27.8833,-91.9950,0100,20.7100
1987-04-12 02:00:00 UTC,2446897.583333,27.8833,-91.9950,0100,20.7300
1987-04-12 02:30:00 UTC,2446897.604167,27.8833,-91.9950,0100,20.7100
1987-04-12 03:00:00 UTC,2446897.625000,27.8833,-91.9950,0100,20.7100
1987-04-12 03:30:00 UTC,2446897.645833,27.8833,-91.9950,0100,20.7300
1987-04-12 04:00:00 UTC,2446897.666667,27.8833,-91.9950,0100,20.7100
1987-04-12 04:30:00 UTC,2446897.687500,27.8833,-91.9950,0100,20.7100
1987-04-12 05:00:00 UTC,2446897.708333,27.8833,-91.9950,0100,20.7100
1987-04-12 05:30:00 UTC,2446897.729167,27.8833,-91.9950,0100,20.7100
1987-04-12 06:00:00 UTC,2446897.750000,27.8833,-91.9950,0100,20.7100
1987-04-12 06:30:00 UTC,2446897.770833,27.8833,-91.9950,0100,20.7100
1987-04-12 07:00:00 UTC,2446897.791667,27.8833,-91.9950,0100,20.7100
1987-04-12 07:30:00 UTC,2446897.812500,27.8833,-91.9950,0100,20.7100
1987-04-12 08:00:00 UTC,2446897.833333,27.8833,-91.9950,0100,20.7100
1987-04-12 08:30:00 UTC,2446897.854167,27.8833,-91.9950,0100,20.7100
1987-04-12 09:00:00 UTC,2446897.875000,27.8833,-91.9950,0100,20.7100
1987-04-12 09:30:00 UTC,2446897.895833,27.8833,-91.9950,0100,20.7300
1987-04-12 10:00:00 UTC,2446897.916667,27.8833,-91.9950,0100,20.7100
1987-04-12 10:30:00 UTC,2446897.937500,27.8833,-91.9950,0100,20.7100
1987-04-12 11:00:00 UTC,2446897.958333,27.8833,-91.9950,0100,20.7300
1987-04-12 11:30:00 UTC,2446897.979167,27.8833,-91.9950,0100,20.7300
1987-04-12 12:00:00 UTC,2446898.000000,27.8833,-91.9950,0100,20.7100
1987-04-12 12:30:00 UTC,2446898.020833,27.8833,-91.9950,0100,20.7300
1987-04-12 13:00:00 UTC,2446898.041667,27.8833,-91.9950,0100,20.7300
1987-04-12 13:30:00 UTC,2446898.062500,27.8833,-91.9950,0100,20.7300
1987-04-12 14:00:00 UTC,2446898.083333,27.8833,-91.9950,0100,20.7300
1987-04-12 14:30:00 UTC,2446898.104167,27.8833,-91.9950,0100,20.7300
1987-04-12 15:00:00 UTC,2446898.125000,27.8833,-91.9950,0100,20.7300
1987-04-12 15:30:00 UTC,2446898.145833,27.8833,-91.9950,0100,20.7300
1987-04-12 16:00:00 UTC,2446898.166667,27.8833,-91.9950,0100,20.7300
1987-04-12 16:30:00 UTC,2446898.187500,27.8833,-91.9950,0100,20.7300
1987-04-12 17:00:00 UTC,2446898.208333,27.8833,-91.9950,0100,20.7300